Voltar ao catálogo

STARLINK-35241

AtivoComunicaçõesVLEO
NORAD 65515·PAYLOAD·🇺🇸 United States

Lançado Sep 5, 2025 de Cape Canaveral Space Force Station

Loading…

Próximas Passagens (próximas 24 horas)

TLE

AtualizadoSource: CelesTrak SupGP

Época: Sep 15, 2026, 02:24 UTC

1 65515C 25198Z   26258.10048611  .00027979  00000+0  82598-3 0  2587
2 65515  53.1566 109.2234 0001196  87.3369  54.9311 15.34401933    11

Acompanhe STARLINK-35241 em tempo real com AllMySat

Download on the App Store